Time,TemperatureF,DewpointF,PressureIn,WindDirection,WindDirectionDegrees,WindSpeedMPH,WindSpeedGustMPH,Humidity,HourlyPrecipIn,Conditions,Clouds,dailyrainin,SoftwareType,DateUTC
2013-04-15 00:03:00,32.0,-99.9,-100.00,North,-999,-999.0,-999.0,-999,0.00,,,-99.99,,2013-04-15 04:03:00,
2013-04-15 00:13:00,32.0,-99.9,-100.00,North,-999,-999.0,-999.0,-999,0.00,,,-99.99,,2013-04-15 04:13:00,
2013-04-15 00:23:00,32.0,-99.9,-100.00,North,-999,-999.0,-999.0,-999,0.00,,,-99.99,,2013-04-15 04:23:00,
2013-04-15 00:34:00,32.0,-99.9,-100.00,North,-999,-999.0,-999.0,-999,0.00,,,-99.99,,2013-04-15 04:34:00,
2013-04-15 00:43:00,32.0,-99.9,-100.00,North,-999,-999.0,-999.0,-999,0.00,,,-99.99,,2013-04-15 04:43:00,
2013-04-15 01:13:00,31.0,-99.9,-100.00,North,-999,-999.0,-999.0,-999,0.00,,,0.06,,2013-04-15 05:13:00,
2013-04-15 01:23:00,31.0,-99.9,-100.00,North,-999,-999.0,-999.0,-999,0.00,,,0.06,,2013-04-15 05:23:00,
2013-04-15 01:33:00,31.0,-99.9,-100.00,North,-999,-999.0,-999.0,-999,0.00,,,0.06,,2013-04-15 05:33:00,
2013-04-15 01:43:00,31.0,-99.9,-100.00,North,-999,-999.0,-999.0,-999,0.00,,,0.06,,2013-04-15 05:43:00,
2013-04-15 02:03:00,30.0,-99.9,-100.00,North,-999,-999.0,-999.0,-999,0.00,,,0.06,,2013-04-15 06:03:00,
2013-04-15 02:12:00,30.0,-99.9,-100.00,North,-999,-999.0,-999.0,-999,0.00,,,0.06,,2013-04-15 06:12:00,
2013-04-15 02:23:00,30.0,-99.9,-100.00,North,-999,-999.0,-999.0,-999,0.00,,,0.06,,2013-04-15 06:23:00,
2013-04-15 02:34:00,30.0,-99.9,-100.00,North,-999,-999.0,-999.0,-999,0.00,,,0.06,,2013-04-15 06:34:00,
2013-04-15 02:43:00,30.0,-99.9,-100.00,North,-999,-999.0,-999.0,-999,0.00,,,0.06,,2013-04-15 06:43:00,
2013-04-15 03:03:00,30.0,-99.9,-100.00,North,-999,-999.0,-999.0,-999,0.00,,,0.06,,2013-04-15 07:03:00,
2013-04-15 03:42:00,30.0,-99.9,-100.00,North,-999,-999.0,-999.0,-999,0.00,,,0.06,,2013-04-15 07:42:00,
2013-04-15 03:43:00,30.0,-99.9,-100.00,North,-999,-999.0,-999.0,-999,0.00,,,0.06,,2013-04-15 07:43:00,
2013-04-15 04:03:00,28.0,-99.9,-100.00,North,-999,-999.0,-999.0,-999,0.00,,,0.06,,2013-04-15 08:03:00,
2013-04-15 04:14:00,28.0,-99.9,-100.00,North,-999,-999.0,-999.0,-999,0.00,,,0.06,,2013-04-15 08:14:00,
2013-04-15 04:23:00,28.0,-99.9,-100.00,North,-999,-999.0,-999.0,-999,0.00,,,0.06,,2013-04-15 08:23:00,
2013-04-15 04:35:00,28.0,-99.9,-100.00,North,-999,-999.0,-999.0,-999,0.00,,,0.06,,2013-04-15 08:35:00,
2013-04-15 04:43:00,28.0,-99.9,-100.00,North,-999,-999.0,-999.0,-999,0.00,,,0.06,,2013-04-15 08:43:00,
2013-04-15 05:03:00,27.0,-99.9,-100.00,North,-999,-999.0,-999.0,-999,0.00,,,0.06,,2013-04-15 09:03:00,
2013-04-15 05:13:00,27.0,-99.9,-100.00,North,-999,-999.0,-999.0,-999,0.00,,,0.06,,2013-04-15 09:13:00,
2013-04-15 05:23:00,27.0,-99.9,-100.00,North,-999,-999.0,-999.0,-999,0.00,,,0.06,,2013-04-15 09:23:00,
2013-04-15 05:33:00,27.0,-99.9,-100.00,North,-999,-999.0,-999.0,-999,0.00,,,0.06,,2013-04-15 09:33:00,
2013-04-15 06:03:00,27.0,-99.9,-100.00,North,-999,-999.0,-999.0,-999,0.00,,,-99.99,,2013-04-15 10:03:00,
2013-04-15 06:13:00,27.0,-99.9,-100.00,North,-999,-999.0,-999.0,-999,0.00,,,-99.99,,2013-04-15 10:13:00,
2013-04-15 06:23:00,27.0,-99.9,-100.00,North,-999,-999.0,-999.0,-999,0.00,,,-99.99,,2013-04-15 10:23:00,
2013-04-15 06:33:00,27.0,-99.9,-100.00,North,-999,-999.0,-999.0,-999,0.00,,,-99.99,,2013-04-15 10:33:00,
2013-04-15 06:42:00,27.0,-99.9,-100.00,North,-999,-999.0,-999.0,-999,0.00,,,-99.99,,2013-04-15 10:42:00,
2013-04-15 07:04:00,27.0,-99.9,-100.00,North,-999,-999.0,-999.0,-999,0.00,,,0.06,,2013-04-15 11:04:00,
2013-04-15 07:13:00,27.0,-99.9,-100.00,North,-999,-999.0,-999.0,-999,0.00,,,0.06,,2013-04-15 11:13:00,
2013-04-15 07:23:00,27.0,-99.9,-100.00,North,-999,-999.0,-999.0,-999,0.00,,,0.06,,2013-04-15 11:23:00,
2013-04-15 07:33:00,27.0,-99.9,-100.00,North,-999,-999.0,-999.0,-999,0.00,,,0.06,,2013-04-15 11:33:00,
2013-04-15 07:44:00,27.0,-99.9,-100.00,North,-999,-999.0,-999.0,-999,0.00,,,0.06,,2013-04-15 11:44:00,
2013-04-15 08:15:00,31.0,-99.9,-100.00,North,-999,-999.0,-999.0,-999,0.00,,,0.06,,2013-04-15 12:15:00,
2013-04-15 08:24:00,31.0,-99.9,-100.00,North,-999,-999.0,-999.0,-999,0.00,,,0.06,,2013-04-15 12:24:00,
2013-04-15 08:35:00,31.0,-99.9,-100.00,North,-999,-999.0,-999.0,-999,0.00,,,0.06,,2013-04-15 12:35:00,
2013-04-15 08:44:00,31.0,-99.9,-100.00,North,-999,-999.0,-999.0,-999,0.00,,,0.06,,2013-04-15 12:44:00,
2013-04-15 09:13:00,39.0,-99.9,-100.00,North,-999,-999.0,-999.0,-999,0.00,,,0.06,,2013-04-15 13:13:00,
2013-04-15 09:24:00,39.0,-99.9,-100.00,North,-999,-999.0,-999.0,-999,0.00,,,0.06,,2013-04-15 13:24:00,
2013-04-15 09:34:00,39.0,-99.9,-100.00,North,-999,-999.0,-999.0,-999,0.00,,,0.06,,2013-04-15 13:34:00,
2013-04-15 09:44:00,39.0,-99.9,-100.00,North,-999,-999.0,-999.0,-999,0.00,,,0.06,,2013-04-15 13:44:00,
2013-04-15 09:45:00,46.0,-99.9,-100.00,North,-999,-999.0,-999.0,-999,0.00,,,0.06,,2013-04-15 13:45:00,
2013-04-15 10:07:00,46.0,-99.9,-100.00,North,-999,-999.0,-999.0,-999,0.00,,,0.06,,2013-04-15 14:07:00,
2013-04-15 10:14:00,46.0,-99.9,-100.00,North,-999,-999.0,-999.0,-999,0.00,,,0.06,,2013-04-15 14:14:00,
2013-04-15 10:24:00,46.0,-99.9,-100.00,North,-999,-999.0,-999.0,-999,0.00,,,0.06,,2013-04-15 14:24:00,
2013-04-15 10:34:00,46.0,-99.9,-100.00,North,-999,-999.0,-999.0,-999,0.00,,,0.06,,2013-04-15 14:34:00,
2013-04-15 10:45:00,49.0,-99.9,-100.00,North,-999,-999.0,-999.0,-999,0.00,,,0.06,,2013-04-15 14:45:00,
2013-04-15 11:05:00,49.0,-99.9,-100.00,North,-999,-999.0,-999.0,-999,0.00,,,0.06,,2013-04-15 15:05:00,
2013-04-15 11:25:00,49.0,-99.9,-100.00,North,-999,-999.0,-999.0,-999,0.00,,,0.06,,2013-04-15 15:25:00,
2013-04-15 11:37:00,49.0,-99.9,-100.00,North,-999,-999.0,-999.0,-999,0.00,,,0.06,,2013-04-15 15:37:00,
2013-04-15 11:45:00,54.0,-99.9,-100.00,North,-999,-999.0,-999.0,-999,0.00,,,0.00,,2013-04-15 15:45:00,
2013-04-15 12:14:00,54.0,-99.9,-100.00,North,-999,-999.0,-999.0,-999,0.00,,,0.00,,2013-04-15 16:14:00,
2013-04-15 12:26:00,54.0,-99.9,-100.00,North,-999,-999.0,-999.0,-999,0.00,,,0.00,,2013-04-15 16:26:00,
2013-04-15 12:35:00,54.0,-99.9,-100.00,North,-999,-999.0,-999.0,-999,0.00,,,0.00,,2013-04-15 16:35:00,
2013-04-15 13:05:00,55.0,-99.9,-100.00,North,-999,-999.0,-999.0,-999,0.00,,,0.00,,2013-04-15 17:05:00,
2013-04-15 13:16:00,55.0,-99.9,-100.00,North,-999,-999.0,-999.0,-999,0.00,,,0.00,,2013-04-15 17:16:00,
2013-04-15 13:22:00,55.0,-99.9,-100.00,North,-999,-999.0,-999.0,-999,0.00,,,0.00,,2013-04-15 17:22:00,
2013-04-15 13:33:00,55.0,-99.9,-100.00,North,-999,-999.0,-999.0,-999,0.00,,,0.00,,2013-04-15 17:33:00,
2013-04-15 13:44:00,55.0,-99.9,-100.00,North,-999,-999.0,-999.0,-999,0.00,,,0.00,,2013-04-15 17:44:00,
2013-04-15 14:04:00,56.0,-99.9,-100.00,North,-999,-999.0,-999.0,-999,0.00,,,0.01,,2013-04-15 18:04:00,
2013-04-15 14:13:00,56.0,-99.9,-100.00,North,-999,-999.0,-999.0,-999,0.00,,,0.01,,2013-04-15 18:13:00,
2013-04-15 14:24:00,56.0,-99.9,-100.00,North,-999,-999.0,-999.0,-999,0.00,,,0.01,,2013-04-15 18:24:00,
2013-04-15 14:33:00,56.0,-99.9,-100.00,North,-999,-999.0,-999.0,-999,0.00,,,0.01,,2013-04-15 18:33:00,
2013-04-15 14:42:00,56.0,-99.9,-100.00,North,-999,-999.0,-999.0,-999,0.00,,,0.01,,2013-04-15 18:42:00,
2013-04-15 14:45:00,58.0,-99.9,-100.00,North,-999,-999.0,-999.0,-999,0.00,,,0.00,,2013-04-15 18:45:00,
2013-04-15 15:03:00,58.0,-99.9,-100.00,North,-999,-999.0,-999.0,-999,0.00,,,0.00,,2013-04-15 19:03:00,
2013-04-15 15:12:00,58.0,-99.9,-100.00,North,-999,-999.0,-999.0,-999,0.00,,,0.00,,2013-04-15 19:12:00,
2013-04-15 15:22:00,58.0,-99.9,-100.00,North,-999,-999.0,-999.0,-999,0.00,,,0.00,,2013-04-15 19:22:00,
2013-04-15 15:40:00,58.0,-99.9,-100.00,North,-999,-999.0,-999.0,-999,0.00,,,0.00,,2013-04-15 19:40:00,
2013-04-15 16:02:00,58.0,-99.9,-100.00,North,-999,-999.0,-999.0,-999,0.00,,,0.00,,2013-04-15 20:02:00,
2013-04-15 16:12:00,58.0,-99.9,-100.00,North,-999,-999.0,-999.0,-999,0.00,,,0.00,,2013-04-15 20:12:00,
2013-04-15 16:22:00,58.0,-99.9,-100.00,North,-999,-999.0,-999.0,-999,0.00,,,0.00,,2013-04-15 20:22:00,
2013-04-15 16:32:00,58.0,-99.9,-100.00,North,-999,-999.0,-999.0,-999,0.00,,,0.00,,2013-04-15 20:32:00,
2013-04-15 16:42:00,58.0,-99.9,-100.00,North,-999,-999.0,-999.0,-999,0.00,,,0.00,,2013-04-15 20:42:00,
2013-04-15 17:03:00,59.0,-99.9,-100.00,North,-999,-999.0,-999.0,-999,0.00,,,0.00,,2013-04-15 21:03:00,
2013-04-15 17:12:00,59.0,-99.9,-100.00,North,-999,-999.0,-999.0,-999,0.00,,,0.00,,2013-04-15 21:12:00,
2013-04-15 17:22:00,59.0,-99.9,-100.00,North,-999,-999.0,-999.0,-999,0.00,,,0.00,,2013-04-15 21:22:00,
2013-04-15 17:33:00,59.0,-99.9,-100.00,North,-999,-999.0,-999.0,-999,0.00,,,0.00,,2013-04-15 21:33:00,
2013-04-15 17:43:00,59.0,-99.9,-100.00,North,-999,-999.0,-999.0,-999,0.00,,,0.00,,2013-04-15 21:43:00,
2013-04-15 18:03:00,55.0,-99.9,-100.00,North,-999,-999.0,-999.0,-999,0.00,,,-99.99,,2013-04-15 22:03:00,
2013-04-15 18:13:00,55.0,-99.9,-100.00,North,-999,-999.0,-999.0,-999,0.00,,,-99.99,,2013-04-15 22:13:00,
2013-04-15 18:23:00,55.0,-99.9,-100.00,North,-999,-999.0,-999.0,-999,0.00,,,-99.99,,2013-04-15 22:23:00,
2013-04-15 18:33:00,55.0,-99.9,-100.00,North,-999,-999.0,-999.0,-999,0.00,,,-99.99,,2013-04-15 22:33:00,
2013-04-15 18:42:00,55.0,-99.9,-100.00,North,-999,-999.0,-999.0,-999,0.00,,,-99.99,,2013-04-15 22:42:00,
2013-04-15 19:03:00,48.0,-99.9,-100.00,North,-999,-999.0,-999.0,-999,0.00,,,0.00,,2013-04-15 23:03:00,
2013-04-15 19:12:00,48.0,-99.9,-100.00,North,-999,-999.0,-999.0,-999,0.00,,,0.00,,2013-04-15 23:12:00,
2013-04-15 19:22:00,48.0,-99.9,-100.00,North,-999,-999.0,-999.0,-999,0.00,,,0.00,,2013-04-15 23:22:00,
2013-04-15 19:32:00,48.0,-99.9,-100.00,North,-999,-999.0,-999.0,-999,0.00,,,0.00,,2013-04-15 23:32:00,
2013-04-15 19:42:00,48.0,-99.9,-100.00,North,-999,-999.0,-999.0,-999,0.00,,,0.00,,2013-04-15 23:42:00,
2013-04-15 20:03:00,45.0,-99.9,-100.00,North,-999,-999.0,-999.0,-999,0.00,,,0.00,,2013-04-16 00:03:00,
2013-04-15 20:12:00,45.0,-99.9,-100.00,North,-999,-999.0,-999.0,-999,0.00,,,0.00,,2013-04-16 00:12:00,
2013-04-15 20:22:00,45.0,-99.9,-100.00,North,-999,-999.0,-999.0,-999,0.00,,,0.00,,2013-04-16 00:22:00,
2013-04-15 20:32:00,45.0,-99.9,-100.00,North,-999,-999.0,-999.0,-999,0.00,,,0.00,,2013-04-16 00:32:00,
2013-04-15 20:42:00,45.0,-99.9,-100.00,North,-999,-999.0,-999.0,-999,0.00,,,0.00,,2013-04-16 00:42:00,
2013-04-15 21:12:00,42.0,-99.9,-100.00,North,-999,-999.0,-999.0,-999,0.00,,,0.00,,2013-04-16 01:12:00,
2013-04-15 21:22:00,42.0,-99.9,-100.00,North,-999,-999.0,-999.0,-999,0.00,,,0.00,,2013-04-16 01:22:00,
2013-04-15 21:32:00,42.0,-99.9,-100.00,North,-999,-999.0,-999.0,-999,0.00,,,0.00,,2013-04-16 01:32:00,
2013-04-15 21:42:00,42.0,-99.9,-100.00,North,-999,-999.0,-999.0,-999,0.00,,,0.00,,2013-04-16 01:42:00,
2013-04-15 22:02:00,40.0,-99.9,-100.00,North,-999,-999.0,-999.0,-999,0.00,,,0.00,,2013-04-16 02:02:00,
2013-04-15 22:12:00,40.0,-99.9,-100.00,North,-999,-999.0,-999.0,-999,0.00,,,0.00,,2013-04-16 02:12:00,
2013-04-15 22:22:00,40.0,-99.9,-100.00,North,-999,-999.0,-999.0,-999,0.00,,,0.00,,2013-04-16 02:22:00,
2013-04-15 22:32:00,40.0,-99.9,-100.00,North,-999,-999.0,-999.0,-999,0.00,,,0.00,,2013-04-16 02:32:00,
2013-04-15 22:42:00,40.0,-99.9,-100.00,North,-999,-999.0,-999.0,-999,0.00,,,0.00,,2013-04-16 02:42:00,
2013-04-15 23:02:00,38.0,-99.9,-100.00,North,-999,-999.0,-999.0,-999,0.00,,,0.00,,2013-04-16 03:02:00,
2013-04-15 23:12:00,38.0,-99.9,-100.00,North,-999,-999.0,-999.0,-999,0.00,,,0.00,,2013-04-16 03:12:00,
2013-04-15 23:22:00,38.0,-99.9,-100.00,North,-999,-999.0,-999.0,-999,0.00,,,0.00,,2013-04-16 03:22:00,
2013-04-15 23:33:00,38.0,-99.9,-100.00,North,-999,-999.0,-999.0,-999,0.00,,,0.00,,2013-04-16 03:33:00,
2013-04-15 23:43:00,38.0,-99.9,-100.00,North,-999,-999.0,-999.0,-999,0.00,,,0.00,,2013-04-16 03:43:00,